星链-6218 (STARLINK-6218 )

导读

STARLINK-6218是美国SpaceX星链(Starlink)项目中的一颗卫星,于2023年7月16日发射升空,属于星链低轨互联网星座的组成部分。该卫星旨在为全球范围内提供高速互联网接入服务,尤其覆盖偏远、网络基础设施薄弱区域,进一步扩充了星链星座的服务覆盖容量与能力。

基本信息
目录编号:
57368
目录名称:
STARLINK-6218
国际标识:
2023-099AS
轨道中心:
EARTH
卫星名称:
星链-6218
卫星全名:
星链-6218 (STARLINK-6218 )
卫星状态:
在轨 (已飞行1146 天)
发射日期:
2023-07-16 UTC
国别 :
美国 (US)
星等 :
--
轨道信息
数据来源 国际轨道数据
星历时间: 2026-09-03T21:46:52+0800
1天前
查看轨道信息
半长轴: 6861.2km
偏心率: 0.0001249
轨道倾角: 43.004°
近地点辐角 270.076°
升交点赤经 317.149°
平近点角 89.995°
近地点: 482.206km
远地点: 483.92km
周期: 94.267分钟
每日圈数: 15.275756
详细信息
固有亮度:
5
最大亮度:
2.5
卫星平台:
Starlink v1.5
覆盖范围:
全球
运营商:
太空探索技术公司
运营商所在国:
美国
制造商(研发单位):
太空探索技术公司
制造商所在国:
美国
使用方式:
暂无
卫星简介
星链(Starlink)计划是由太空探索技术公司(SpaceX)提出的一个巨型低轨卫星互联网星座项目,计划在2019年至2024年间在太空搭建由约1.2万颗卫星组成的“星链”网络,其中1584颗将部署在地球上空550千米处的近地轨道,并从2020年开始工作。该卫星仍在工作。
2D轨道图
3D轨道图
轨道高度分析图
轨道倾角分析图
轨道综合分析图
查看轨道综合分析图
交会数据列表
事件ID 空间交会对象 最接近时刻(TCA) 交会距离 交会风险概率(CRP) 交会风险指数(CRI) 操作
CDM_260901-181505-736805-870121
2026-09-01T
18:15:07+0000
2.876 km
极远距离
1.253876E-6 低风险 0.37